Wind_Speed
1 1 1 1 2 3 5 7 8 10 11 12 14 15 15 15 14 15 14 13 13 12 12 11 11 10 9 9 9 9 8 8 7 7 7 6 6 6 5 4 4 4 4 4 5 5 4 5 5
3 3 3 2 1 2 4 6 7 9 10 11 13 15 14 15 14 14 13 13 12 12 12 11 10 10 9 9 9 9 8 8 7 7 6 6 6 6 6 5 5 4 4 5 5 5 5 5 5
5 5 5 4 2 2 3 5 6 7 9 11 12 14 15 15 14 14 13 12 12 12 11 11 11 10 10 9 9 8 8 7 7 7 7 6 6 6 6 6 5 5 5 5 5 5 5 5 6
6 6 6 5 4 3 3 4 5 7 8 10 12 14 14 14 13 13 13 13 12 12 11 11 10 11 10 10 9 9 8 8 7 7 7 7 6 6 6 6 6 5 5 5 5 5 5 5 6
8 7 7 6 5 5 4 5 6 7 8 9 11 13 13 13 13 13 13 13 12 11 11 10 10 10 10 10 9 9 9 8 8 7 7 7 7 7 7 6 6 4 4 4 4 4 4 5 5
10 9 9 7 6 5 6 6 6 7 8 9 10 11 12 13 13 13 13 12 11 11 11 10 10 10 10 10 10 9 9 8 8 7 7 7 7 7 7 6 5 3 3 3 4 4 4 4 5
11 10 10 8 7 6 6 7 7 7 9 9 10 11 12 13 13 12 12 12 11 11 10 10 10 10 10 10 9 10 9 8 8 8 7 8 8 7 7 6 4 3 3 3 3 4 5 5 5
13 11 10 9 8 7 7 7 7 7 8 9 10 11 12 12 12 12 11 11 11 10 10 10 10 10 10 9 9 9 9 8 8 8 8 8 8 7 7 6 5 4 3 3 4 5 5 5 5
13 12 11 10 9 8 7 7 7 8 9 10 11 11 11 12 12 12 11 11 10 9 9 10 10 10 10 10 9 9 9 9 8 8 8 8 8 7 6 6 6 5 4 4 4 5 5 5 5
14 13 12 11 10 9 8 6 7 8 9 9 10 11 11 12 12 11 11 10 9 9 9 9 9 10 10 10 10 9 9 9 8 8 8 7 7 7 6 6 6 5 5 5 5 5 5 4 4
14 13 12 12 11 10 8 6 6 8 8 8 9 10 11 11 11 11 10 10 9 8 9 9 9 10 10 10 10 9 9 9 8 8 7 7 7 6 6 5 5 5 5 5 5 5 5 4 4
15 13 13 13 12 11 9 7 6 7 7 7 8 9 10 10 11 10 10 9 8 8 8 8 9 9 10 10 10 9 9 8 8 8 7 7 6 6 5 5 5 5 5 5 5 5 5 5 4
15 14 14 14 13 12 11 9 7 7 8 8 9 10 10 9 10 9 9 9 8 7 7 8 9 10 10 10 10 10 10 9 9 8 8 7 7 6 5 5 6 5 5 5 4 4 5 5 5
14 15 15 15 14 13 12 10 9 9 8 9 9 10 10 9 9 8 8 9 8 7 7 8 9 10 10 10 10 10 11 10 9 8 8 7 7 6 6 5 5 5 5 4 4 4 5 5 5
15 15 15 15 14 13 12 11 11 10 9 9 10 10 9 8 8 8 7 7 7 6 7 8 9 10 10 11 11 10 11 10 9 8 8 7 7 6 6 6 5 5 5 5 5 5 5 5 5
16 15 15 15 15 14 13 12 11 11 10 10 10 10 9 9 8 8 7 7 7 6 7 8 9 10 11 12 11 10 11 10 10 9 8 8 7 6 6 6 5 5 5 5 5 5 5 5 6
16 16 15 15 15 15 15 13 12 12 12 11 10 10 10 10 10 9 8 8 7 7 7 8 9 10 11 11 11 11 11 10 9 9 8 8 7 6 5 5 5 5 4 4 4 5 4 5 5
17 16 16 16 17 17 16 15 13 13 12 12 11 11 11 10 10 9 9 9 8 8 8 8 9 10 10 11 11 10 10 10 10 9 8 8 7 6 5 4 4 4 5 5 5 5 5 5 4
18 17 17 17 18 18 16 15 13 13 13 13 12 12 11 11 11 10 10 8 8 8 8 9 10 10 10 10 10 10 10 10 9 9 8 8 7 6 6 5 4 5 5 5 5 5 5 5 4
20 19 18 18 19 18 16 15 14 13 13 14 15 14 13 14 13 11 10 9 9 9 10 10 10 11 10 10 10 10 11 10 10 9 9 8 7 7 6 6 5 5 5 5 5 5 5 4 4
20 19 18 19 18 18 18 17 16 15 15 15 15 15 14 14 13 12 10 10 10 10 10 11 11 11 10 10 10 11 11 11 10 9 9 9 8 8 8 7 6 6 6 6 6 6 5 5 5
18 17 18 19 19 18 18 18 17 16 16 16 16 15 14 14 14 13 11 11 11 11 11 11 11 11 11 11 11 11 11 10 10 10 10 10 9 8 8 8 7 7 7 7 6 6 6 6 6
17 18 18 19 19 19 19 18 16 16 17 16 15 14 14 14 13 13 12 11 12 12 12 12 12 12 12 12 12 11 11 10 10 11 11 10 10 9 8 8 8 7 7 7 7 7 7 7 7
19 19 19 20 20 20 19 19 17 17 16 15 14 14 13 13 13 13 12 12 12 12 12 13 13 13 14 13 13 12 12 12 12 11 11 11 10 10 10 9 8 8 8 7 7 8 7 7 7
20 20 20 20 21 20 19 19 18 16 15 14 14 14 13 12 13 13 13 13 13 13 14 14 15 15 15 15 14 14 13 14 13 13 12 11 11 10 11 10 10 9 9 8 9 9 8 8 9
19 20 22 21 21 20 19 19 17 16 15 14 14 13 14 13 13 13 13 13 14 14 15 15 16 16 16 16 16 15 15 15 14 14 13 12 11 11 11 11 11 10 10 10 10 11 10 10 10
20 21 22 22 22 21 20 19 18 16 16 15 15 15 14 14 14 14 15 15 15 16 16 17 17 17 17 17 16 16 16 16 15 15 14 13 12 12 12 12 12 12 12 12 12 12 12 11 11
21 21 22 23 23 22 21 21 19 18 17 16 17 17 16 16 16 16 16 16 16 17 17 18 18 18 17 17 17 16 17 17 16 16 15 14 13 14 14 13 13 14 13 14 14 13 13 13 13
21 22 22 23 23 23 23 21 20 19 18 18 18 18 17 17 17 17 17 17 17 17 18 18 18 19 19 18 17 16 15 16 16 16 16 16 15 15 15 14 14 15 15 15 15 15 15 14 14
22 22 23 23 23 23 23 21 20 19 18 18 18 18 18 18 17 17 18 18 17 18 18 19 18 18 18 18 17 17 16 16 16 17 16 15 16 16 16 16 16 17 17 17 16 16 16 16 17
Wind_Direction
267 266 308 350 30 37 30 30 31 31 29 24 18 17 17 15 12 10 8 7 7 7 7 8 8 9 11 14 17 21 22 23 23 21 20 16 10 2 351 340 331 317 309 305 299 298 292 273 259
251 257 269 291 331 8 18 25 27 25 22 19 16 15 14 10 8 7 5 6 5 5 5 7 8 9 13 13 13 17 20 20 19 19 18 14 7 359 351 339 327 314 303 299 295 290 284 274 265
253 259 268 281 293 329 357 12 12 12 13 10 12 10 7 5 3 5 4 3 3 3 4 7 10 11 15 17 14 16 17 17 16 15 14 10 4 357 349 342 328 312 300 300 303 292 282 274 270
255 260 267 275 285 304 326 342 348 355 3 4 3 3 4 1 0 1 359 358 359 2 6 10 13 15 17 19 17 14 14 13 11 8 7 5 360 354 346 337 325 314 305 307 308 303 294 280 276
254 259 264 276 282 289 305 317 333 347 356 357 357 358 358 357 355 354 354 355 357 1 6 11 14 15 16 17 15 14 11 11 8 5 3 357 355 349 341 335 324 312 311 313 317 315 308 298 291
254 255 259 269 279 283 292 308 323 338 345 345 350 355 355 353 351 351 352 354 356 360 4 9 11 11 12 12 12 10 8 9 8 5 4 359 355 352 348 343 343 329 314 310 318 317 313 300 290
250 255 257 261 272 274 280 297 317 331 337 343 346 348 349 349 349 349 349 352 355 357 0 4 6 6 8 8 8 6 7 11 11 7 3 357 352 350 348 346 351 347 330 313 315 319 315 302 284
249 253 256 258 268 276 280 298 311 324 333 334 337 342 345 346 348 350 349 351 355 357 360 2 3 3 2 3 5 6 7 10 8 3 358 353 349 346 344 344 342 336 330 323 312 314 316 311 294
249 251 255 258 266 272 274 292 306 315 321 324 329 336 341 344 346 349 348 350 353 357 358 0 2 3 3 3 3 5 5 2 360 357 355 352 349 346 344 337 333 332 324 318 310 309 312 309 293
248 250 254 254 259 269 268 283 299 307 315 322 328 332 339 343 344 347 347 347 350 353 355 360 2 2 1 0 359 360 358 356 352 351 352 350 350 348 348 343 338 333 325 321 312 308 306 307 294
248 249 250 252 257 263 260 268 293 301 308 319 324 329 335 338 341 343 344 346 351 355 354 356 358 359 358 358 357 355 353 351 350 346 345 346 347 348 345 342 338 332 324 322 317 314 304 300 292
248 247 248 249 252 253 253 258 279 299 304 311 318 322 329 331 333 335 339 343 346 351 352 353 355 355 353 353 352 352 351 349 347 343 341 340 339 338 337 336 332 329 325 324 322 312 304 298 295
245 247 249 249 249 249 252 256 269 288 295 305 316 319 322 320 322 327 331 339 342 345 349 352 352 351 348 347 346 350 350 345 344 339 336 334 333 332 330 329 326 322 318 317 319 321 310 299 297
244 245 246 247 247 249 253 259 269 279 285 297 309 316 318 314 314 317 321 327 332 335 342 346 347 349 346 345 344 345 345 343 342 338 332 329 329 330 323 326 326 322 317 315 319 319 321 313 302
245 248 248 245 246 247 249 256 267 272 282 292 301 305 310 311 312 312 317 323 324 330 335 336 337 341 342 343 342 341 339 336 337 337 331 326 325 324 322 320 320 319 318 316 315 312 308 309 307
244 244 244 245 246 247 249 254 262 269 281 289 292 292 301 304 304 306 308 314 316 316 323 326 328 334 338 341 340 338 336 332 330 332 330 330 323 314 314 314 316 313 311 309 309 306 306 305 304
243 242 242 243 248 247 248 254 261 267 275 282 284 284 295 302 299 297 301 308 312 308 316 322 325 329 332 337 337 336 333 332 331 329 329 329 326 318 314 312 311 306 304 304 304 299 298 301 305
242 240 239 242 246 247 249 255 261 265 269 274 279 282 290 303 302 299 302 304 305 306 313 319 322 321 321 327 330 331 332 332 327 323 322 320 318 315 316 314 312 304 302 301 298 292 291 296 300
239 238 238 242 246 248 252 257 262 265 264 269 278 283 290 298 300 302 302 300 301 305 310 314 319 318 317 320 325 326 328 329 325 320 317 317 314 309 312 315 306 300 298 297 295 293 291 291 287
240 238 238 241 245 247 252 258 262 265 266 271 277 281 288 291 296 296 294 290 294 301 304 305 311 313 312 312 317 322 321 324 325 319 315 311 307 303 303 303 301 298 299 297 297 298 296 288 284
237 237 239 242 245 248 253 256 261 266 270 273 277 279 281 287 288 287 283 285 289 295 299 302 303 303 303 304 308 313 317 319 322 323 319 314 307 302 297 297 292 290 290 292 291 292 290 284 281
238 241 241 245 249 252 256 260 260 264 269 273 275 277 279 281 282 282 277 277 280 286 292 294 295 297 297 296 299 304 308 311 313 314 314 313 308 300 295 294 292 289 287 287 289 292 282 279 278
238 241 244 246 250 254 256 260 261 266 269 271 275 276 276 275 279 276 273 273 276 281 285 290 292 291 291 291 292 296 300 302 302 305 305 304 301 299 293 290 289 287 282 281 286 285 277 274 272
238 241 244 246 249 253 257 262 264 267 272 272 274 273 275 273 272 273 274 273 275 279 282 286 287 287 288 289 290 292 294 295 295 298 299 299 295 290 288 287 286 284 279 277 283 283 279 275 271
240 242 245 247 249 252 256 260 265 268 269 272 274 275 272 271 267 268 272 272 275 277 279 282 284 287 287 287 287 287 289 290 289 290 291 291 292 291 288 286 285 283 278 278 278 279 278 274 269
240 243 245 249 250 250 253 258 262 265 265 267 270 271 267 263 261 266 272 271 273 276 279 286 288 286 285 283 285 287 287 289 288 287 287 284 283 287 286 283 281 279 279 279 278 279 278 276 272
241 244 246 249 250 252 255 257 259 262 266 268 271 270 265 260 262 268 271 271 273 276 280 283 287 287 285 282 284 289 287 286 288 287 286 280 276 277 278 278 277 275 275 278 280 279 278 274 273
243 245 246 249 252 256 257 258 261 263 266 268 271 273 268 267 268 271 271 272 275 277 280 283 284 283 281 282 283 289 286 284 285 285 286 284 278 278 278 277 276 273 271 275 279 281 279 275 275
245 246 249 252 254 257 261 263 265 267 269 269 271 272 271 271 272 275 274 272 278 282 286 286 287 284 279 281 284 289 290 284 282 283 284 282 279 278 278 278 278 274 272 273 277 279 277 277 278
249 250 252 253 254 258 262 266 268 268 271 272 272 272 272 273 274 276 275 274 276 281 283 284 286 288 285 283 283 287 288 288 287 286 286 282 278 276 275 276 275 274 274 275 276 277 277 276 276
Height
5899 5900 5900 5901 5902 5901 5899 5899 5898 5897 5896 5895 5894 5892 5892 5891 5891 5892 5888 5886 5884 5883 5881 5880 5878 5877 5875 5874 5874 5873 5872 5871 5871 5870 5870 5870 5870 5870 5869 5869 5869 5869 5869 5869 5869 5869 5869 5870 5870
5899 5900 5901 5901 5901 5900 5900 5899 5898 5898 5897 5896 5894 5893 5892 5891 5890 5889 5887 5886 5885 5883 5882 5880 5878 5877 5875 5874 5873 5872 5872 5871 5871 5870 5870 5870 5869 5869 5869 5869 5868 5868 5868 5868 5868 5868 5868 5868 5869
5899 5900 5901 5901 5900 5900 5900 5899 5899 5898 5897 5896 5895 5894 5893 5892 5891 5889 5888 5887 5885 5884 5882 5880 5878 5877 5875 5874 5873 5872 5872 5871 5871 5870 5870 5869 5869 5868 5868 5868 5867 5867 5867 5867 5867 5867 5867 5867 5868
5899 5900 5901 5901 5900 5900 5899 5899 5898 5898 5897 5897 5895 5894 5893 5892 5891 5890 5888 5887 5885 5884 5882 5880 5879 5877 5876 5874 5873 5872 5872 5871 5871 5870 5870 5869 5869 5868 5867 5866 5866 5865 5866 5866 5866 5866 5866 5866 5866
5898 5899 5900 5899 5899 5899 5899 5898 5898 5898 5897 5896 5895 5894 5893 5892 5890 5889 5888 5887 5885 5884 5882 5880 5879 5877 5876 5875 5874 5873 5872 5871 5870 5870 5869 5869 5868 5867 5866 5865 5863 5863 5864 5865 5865 5865 5865 5865 5865
5897 5898 5899 5898 5898 5899 5898 5897 5897 5897 5897 5896 5895 5894 5893 5892 5890 5889 5888 5886 5885 5884 5882 5880 5879 5878 5876 5875 5874 5873 5872 5871 5870 5870 5869 5868 5868 5867 5866 5863 5861 5861 5863 5864 5864 5864 5864 5864 5864
5896 5897 5897 5897 5898 5898 5898 5897 5897 5896 5896 5896 5895 5894 5893 5892 5890 5889 5887 5886 5885 5883 5882 5880 5879 5878 5876 5875 5874 5873 5871 5871 5870 5869 5869 5868 5867 5866 5865 5864 5862 5862 5863 5863 5863 5863 5863 5863 5862
5894 5896 5895 5896 5896 5897 5897 5896 5896 5895 5895 5895 5894 5894 5893 5892 5890 5888 5887 5886 5885 5883 5882 5880 5879 5878 5876 5875 5874 5873 5871 5870 5870 5869 5868 5867 5867 5866 5865 5864 5863 5862 5862 5862 5862 5862 5862 5861 5861
5892 5894 5894 5895 5895 5896 5895 5895 5895 5895 5895 5894 5893 5893 5892 5891 5889 5888 5887 5886 5884 5883 5882 5880 5879 5877 5876 5875 5874 5872 5871 5870 5869 5868 5868 5867 5866 5865 5864 5863 5862 5862 5862 5861 5861 5861 5860 5860 5860
5890 5891 5893 5893 5893 5894 5894 5894 5894 5894 5894 5893 5893 5892 5891 5890 5889 5887 5886 5885 5884 5883 5881 5880 5879 5877 5876 5875 5873 5872 5871 5870 5869 5868 5867 5866 5865 5864 5863 5862 5862 5861 5861 5861 5860 5860 5859 5859 5859
5888 5889 5891 5891 5891 5892 5892 5892 5892 5892 5892 5893 5892 5891 5890 5889 5888 5887 5886 5885 5883 5882 5881 5880 5878 5877 5876 5874 5873 5872 5870 5869 5868 5867 5866 5865 5864 5863 5863 5862 5861 5860 5860 5860 5859 5859 5858 5858 5858
5886 5887 5888 5889 5890 5890 5891 5891 5891 5891 5892 5892 5891 5890 5889 5888 5887 5886 5885 5884 5883 5881 5880 5879 5878 5876 5875 5874 5872 5871 5870 5869 5867 5866 5865 5864 5863 5863 5862 5861 5860 5860 5859 5859 5858 5858 5857 5857 5857
5884 5885 5886 5887 5888 5889 5889 5889 5890 5890 5891 5890 5890 5889 5888 5887 5886 5885 5884 5883 5882 5880 5879 5878 5877 5876 5875 5873 5872 5871 5869 5868 5866 5865 5864 5863 5862 5862 5861 5860 5859 5858 5858 5858 5857 5857 5857 5856 5856
5882 5883 5884 5884 5885 5886 5887 5888 5888 5888 5889 5888 5888 5888 5887 5885 5885 5884 5883 5882 5881 5880 5879 5877 5876 5875 5874 5872 5871 5870 5869 5867 5866 5864 5863 5862 5861 5860 5860 5859 5858 5857 5857 5856 5856 5856 5856 5855 5855
5879 5880 5882 5882 5883 5884 5886 5886 5886 5887 5887 5886 5886 5886 5885 5884 5883 5882 5881 5881 5880 5879 5877 5876 5875 5874 5873 5871 5870 5869 5868 5866 5865 5863 5862 5861 5860 5859 5858 5858 5857 5856 5856 5855 5855 5855 5855 5854 5854
5877 5878 5879 5880 5880 5881 5884 5885 5885 5885 5885 5885 5884 5884 5883 5882 5882 5881 5880 5879 5878 5877 5876 5875 5874 5873 5872 5870 5869 5868 5866 5865 5863 5862 5860 5859 5859 5858 5857 5856 5856 5855 5855 5854 5854 5854 5853 5853 5853
5875 5876 5876 5877 5878 5878 5880 5881 5882 5882 5883 5882 5882 5881 5881 5881 5880 5879 5878 5877 5876 5876 5875 5874 5873 5872 5871 5870 5868 5867 5865 5864 5862 5861 5859 5858 5857 5856 5856 5855 5854 5854 5853 5853 5853 5852 5852 5852 5851
5872 5873 5874 5874 5875 5876 5877 5878 5879 5880 5880 5880 5880 5879 5879 5878 5877 5877 5876 5875 5874 5874 5873 5872 5871 5870 5869 5868 5867 5865 5864 5862 5861 5860 5858 5857 5856 5855 5854 5854 5853 5852 5852 5852 5851 5851 5851 5850 5850
5868 5869 5870 5872 5872 5873 5874 5875 5876 5877 5877 5877 5877 5877 5876 5876 5875 5875 5874 5873 5872 5872 5871 5870 5870 5869 5868 5867 5865 5864 5863 5861 5860 5858 5857 5856 5855 5854 5853 5852 5851 5851 5851 5850 5850 5850 5849 5849 5849
5864 5866 5868 5869 5869 5870 5871 5872 5873 5873 5874 5875 5875 5874 5874 5873 5873 5872 5872 5871 5871 5870 5870 5869 5868 5867 5866 5865 5864 5862 5861 5860 5858 5857 5855 5854 5853 5852 5851 5850 5850 5849 5849 5849 5848 5848 5848 5848 5847
5861 5863 5864 5865 5866 5867 5868 5870 5870 5871 5871 5871 5871 5871 5870 5870 5870 5869 5869 5869 5869 5868 5867 5867 5866 5865 5864 5863 5861 5860 5859 5858 5856 5855 5854 5852 5851 5850 5849 5849 5848 5848 5848 5847 5847 5846 5846 5846 5846
5858 5860 5861 5862 5862 5863 5865 5866 5867 5867 5867 5868 5868 5867 5867 5867 5866 5866 5866 5865 5866 5866 5865 5864 5863 5862 5861 5860 5859 5857 5856 5855 5854 5853 5852 5850 5849 5848 5847 5846 5846 5846 5846 5845 5845 5844 5844 5844 5844
5855 5856 5857 5858 5859 5860 5861 5862 5864 5864 5864 5865 5865 5864 5864 5864 5863 5863 5863 5863 5863 5863 5862 5861 5860 5859 5858 5857 5856 5855 5854 5853 5852 5850 5849 5848 5847 5846 5845 5844 5844 5844 5843 5843 5843 5842 5842 5842 5842
5851 5853 5853 5854 5855 5856 5858 5858 5860 5860 5861 5861 5861 5861 5861 5861 5860 5860 5860 5860 5860 5860 5859 5858 5857 5857 5855 5854 5853 5852 5851 5850 5849 5848 5846 5845 5844 5843 5843 5842 5842 5841 5841 5841 5841 5840 5840 5840 5840
5848 5849 5850 5851 5851 5853 5854 5855 5856 5857 5857 5858 5858 5858 5858 5858 5857 5857 5857 5857 5857 5857 5856 5855 5854 5854 5852 5851 5849 5848 5848 5847 5846 5845 5843 5842 5841 5841 5840 5840 5839 5839 5839 5839 5838 5838 5838 5837 5838
5844 5846 5847 5848 5849 5850 5851 5851 5854 5854 5854 5854 5855 5855 5855 5854 5854 5854 5854 5854 5854 5853 5853 5852 5851 5850 5849 5847 5846 5845 5845 5844 5843 5841 5840 5839 5838 5838 5837 5837 5837 5837 5836 5836 5836 5836 5835 5835 5835
5840 5841 5843 5844 5845 5846 5847 5848 5850 5850 5851 5851 5851 5852 5851 5851 5851 5851 5850 5850 5850 5850 5849 5848 5847 5846 5844 5843 5842 5842 5841 5840 5839 5838 5836 5836 5835 5835 5834 5834 5834 5834 5834 5834 5833 5833 5832 5832 5832
5837 5838 5839 5840 5841 5842 5843 5844 5846 5847 5847 5847 5848 5848 5848 5848 5848 5847 5847 5846 5846 5846 5845 5844 5843 5841 5841 5840 5838 5838 5837 5836 5835 5833 5833 5832 5832 5831 5831 5830 5831 5830 5830 5830 5830 5830 5829 5829 5829
5833 5834 5835 5836 5837 5838 5839 5843 5842 5843 5843 5843 5844 5844 5844 5844 5844 5843 5843 5842 5842 5841 5840 5839 5838 5837 5836 5835 5835 5834 5833 5832 5830 5830 5829 5829 5828 5828 5827 5827 5826 5826 5827 5827 5826 5826 5826 5826 5826
5828 5829 5831 5833 5833 5834 5835 5840 5838 5838 5838 5839 5839 5839 5839 5839 5839 5839 5838 5838 5838 5837 5836 5835 5834 5833 5832 5831 5830 5829 5829 5827 5826 5826 5825 5824 5824 5823 5823 5823 5822 5822 5823 5822 5822 5822 5822 5822 5822